Time,TemperatureF,DewpointF,PressureIn,WindDirection,WindDirectionDegrees,WindSpeedMPH,WindSpeedGustMPH,Humidity,HourlyPrecipIn,Conditions,Clouds,dailyrainin,SolarRadiationWatts/m^2,SoftwareType,DateUTC
2013-06-04 00:00:00,57.2,56.9,30.06,NNE,22,0.0,1.0,99,0.00,CLR,,0.00,0.0,WeatherDisplay:10.37,2013-06-03 14:00:00,
2013-06-04 00:05:00,57.2,56.9,30.06,NNE,22,0.0,2.0,99,0.00,CLR,,0.00,0.0,WeatherDisplay:10.37,2013-06-03 14:05:00,
2013-06-04 00:10:00,57.0,56.7,30.06,NNE,22,0.0,1.0,99,0.00,CLR,,0.00,0.0,WeatherDisplay:10.37,2013-06-03 14:10:00,
2013-06-04 00:15:00,56.8,56.6,30.06,NNE,22,0.0,2.0,99,0.00,CLR,,0.00,0.0,WeatherDisplay:10.37,2013-06-03 14:15:00,
2013-06-04 00:20:00,56.5,56.2,30.06,NNE,22,0.0,1.0,99,0.00,CLR,,0.00,0.0,WeatherDisplay:10.37,2013-06-03 14:20:00,
2013-06-04 00:25:00,56.4,56.1,30.06,NNE,22,0.0,0.0,99,0.00,CLR,,0.00,0.0,WeatherDisplay:10.37,2013-06-03 14:25:00,
2013-06-04 00:30:00,56.6,56.3,30.06,NNE,22,0.0,0.0,99,0.00,CLR,,0.00,0.0,WeatherDisplay:10.37,2013-06-03 14:30:00,
2013-06-04 00:35:00,56.5,56.2,30.06,NNE,22,0.0,0.0,99,0.00,CLR,,0.00,0.0,WeatherDisplay:10.37,2013-06-03 14:35:00,
2013-06-04 00:40:00,56.2,55.9,30.06,NNE,22,0.0,0.0,99,0.00,CLR,,0.00,0.0,WeatherDisplay:10.37,2013-06-03 14:40:00,
2013-06-04 00:45:00,56.1,55.9,30.06,NNE,22,0.0,0.0,99,0.00,CLR,,0.00,0.0,WeatherDisplay:10.37,2013-06-03 14:45:00,
2013-06-04 00:50:00,56.5,56.2,30.05,NNE,22,0.0,0.0,99,0.00,CLR,,0.00,0.0,WeatherDisplay:10.37,2013-06-03 14:50:00,
2013-06-04 00:55:00,56.3,56.0,30.05,NNE,22,0.0,0.0,99,0.00,CLR,,0.00,0.0,WeatherDisplay:10.37,2013-06-03 14:55:00,
2013-06-04 01:00:00,56.1,55.8,30.06,NNE,22,0.0,0.0,99,0.00,CLR,,0.00,0.0,WeatherDisplay:10.37,2013-06-03 15:00:00,
2013-06-04 01:05:00,55.9,55.7,30.06,NNE,22,0.0,0.0,99,0.00,CLR,,0.00,0.0,WeatherDisplay:10.37,2013-06-03 15:05:00,
2013-06-04 01:10:00,55.9,55.6,30.05,NNE,22,0.0,0.0,99,0.00,CLR,,0.00,0.0,WeatherDisplay:10.37,2013-06-03 15:10:00,
2013-06-04 01:15:00,55.8,55.5,30.06,NNE,22,0.0,0.0,99,0.00,CLR,,0.00,0.0,WeatherDisplay:10.37,2013-06-03 15:15:00,
2013-06-04 01:20:00,55.6,55.3,30.05,NNE,22,0.0,0.0,99,0.00,CLR,,0.00,0.0,WeatherDisplay:10.37,2013-06-03 15:20:00,
2013-06-04 01:25:00,55.6,55.3,30.05,NNE,22,0.0,0.0,99,0.00,CLR,,0.00,0.0,WeatherDisplay:10.37,2013-06-03 15:25:00,
2013-06-04 01:30:00,55.7,55.4,30.05,NNE,22,0.0,0.0,99,0.00,CLR,,0.00,0.0,WeatherDisplay:10.37,2013-06-03 15:30:00,
2013-06-04 01:35:00,55.8,55.5,30.04,NNE,22,0.0,0.0,99,0.00,CLR,,0.00,0.0,WeatherDisplay:10.37,2013-06-03 15:35:00,
2013-06-04 01:40:00,55.8,55.5,30.04,NNE,22,2.0,5.0,99,0.00,CLR,,0.00,0.0,WeatherDisplay:10.37,2013-06-03 15:40:00,
2013-06-04 01:45:00,55.8,55.5,30.04,NNE,22,1.0,3.0,99,0.00,CLR,,0.00,0.0,WeatherDisplay:10.37,2013-06-03 15:45:00,
2013-06-04 01:55:00,55.4,55.1,30.03,NNE,22,1.0,2.0,99,0.00,CLR,,0.00,0.0,WeatherDisplay:10.37,2013-06-03 15:55:00,
2013-06-04 02:00:00,55.4,55.1,30.03,NNE,22,0.0,2.0,99,0.00,CLR,,0.00,0.0,WeatherDisplay:10.37,2013-06-03 16:00:00,
2013-06-04 02:05:00,55.4,55.1,30.03,NNE,22,0.0,0.0,99,0.00,CLR,,0.00,0.0,WeatherDisplay:10.37,2013-06-03 16:05:00,
2013-06-04 02:10:00,55.4,55.1,30.03,NNE,22,0.0,0.0,99,0.00,CLR,,0.00,0.0,WeatherDisplay:10.37,2013-06-03 16:10:00,
2013-06-04 02:15:00,55.5,55.2,30.03,NNE,22,2.0,3.0,99,0.00,CLR,,0.00,0.0,WeatherDisplay:10.37,2013-06-03 16:15:00,
2013-06-04 02:25:00,56.0,55.7,30.03,NNE,22,0.0,2.0,99,0.00,CLR,,0.00,0.0,WeatherDisplay:10.37,2013-06-03 16:25:00,
2013-06-04 02:30:00,56.3,56.0,30.03,NNE,22,0.0,1.0,99,0.00,CLR,,0.00,0.0,WeatherDisplay:10.37,2013-06-03 16:30:00,
2013-06-04 02:35:00,56.5,56.3,30.02,NNE,22,2.0,3.0,99,0.00,CLR,,0.00,0.0,WeatherDisplay:10.37,2013-06-03 16:35:00,
2013-06-04 02:40:00,56.5,56.2,30.02,NNE,22,0.0,2.0,99,0.00,CLR,,0.00,0.0,WeatherDisplay:10.37,2013-06-03 16:40:00,
2013-06-04 02:45:00,56.3,56.0,30.02,NNE,22,0.0,1.0,99,0.00,CLR,,0.00,0.0,WeatherDisplay:10.37,2013-06-03 16:45:00,
2013-06-04 02:50:00,56.4,56.1,30.02,NNE,22,0.0,0.0,99,0.00,CLR,,0.00,0.0,WeatherDisplay:10.37,2013-06-03 16:50:00,
2013-06-04 02:55:00,56.5,56.2,30.02,NNE,22,0.0,0.0,99,0.00,CLR,,0.00,0.0,WeatherDisplay:10.37,2013-06-03 16:55:00,
2013-06-04 03:00:00,56.3,56.0,30.01,NNE,22,0.0,0.0,99,0.00,CLR,,0.00,0.0,WeatherDisplay:10.37,2013-06-03 17:00:00,
2013-06-04 03:05:00,56.3,56.0,30.02,NNE,22,0.0,0.0,99,0.00,CLR,,0.00,0.0,WeatherDisplay:10.37,2013-06-03 17:05:00,
2013-06-04 03:10:00,56.3,56.0,30.02,NNE,22,0.0,0.0,99,0.00,CLR,,0.00,0.0,WeatherDisplay:10.37,2013-06-03 17:10:00,
2013-06-04 03:15:00,56.0,55.7,30.02,NNE,22,0.0,2.0,99,0.00,CLR,,0.00,0.0,WeatherDisplay:10.37,2013-06-03 17:15:00,
2013-06-04 03:20:00,55.8,55.5,30.02,NNE,22,1.0,3.0,99,0.00,CLR,,0.00,0.0,WeatherDisplay:10.37,2013-06-03 17:20:00,
2013-06-04 03:25:00,55.8,55.5,30.02,NNE,22,2.0,4.0,99,0.00,CLR,,0.00,0.0,WeatherDisplay:10.37,2013-06-03 17:25:00,
2013-06-04 03:30:00,55.9,55.6,30.01,NNE,22,1.0,4.0,99,0.00,CLR,,0.00,0.0,WeatherDisplay:10.37,2013-06-03 17:30:00,
2013-06-04 03:35:00,56.1,55.8,30.02,NNE,22,1.0,4.0,99,0.00,CLR,,0.00,0.0,WeatherDisplay:10.37,2013-06-03 17:35:00,
2013-06-04 03:40:00,56.1,55.8,30.01,NNE,22,0.0,4.0,99,0.00,CLR,,0.00,0.0,WeatherDisplay:10.37,2013-06-03 17:40:00,
2013-06-04 03:45:00,56.1,55.8,30.02,NNE,22,1.0,3.0,99,0.00,CLR,,0.00,0.0,WeatherDisplay:10.37,2013-06-03 17:45:00,
2013-06-04 03:50:00,55.9,55.7,30.02,NNE,22,1.0,3.0,99,0.00,CLR,,0.00,0.0,WeatherDisplay:10.37,2013-06-03 17:50:00,
2013-06-04 03:55:00,56.1,55.8,30.01,NNE,22,0.0,2.0,99,0.00,CLR,,0.00,0.0,WeatherDisplay:10.37,2013-06-03 17:55:00,
2013-06-04 04:00:00,56.1,55.8,30.01,NNE,22,0.0,2.0,99,0.00,CLR,,0.00,0.0,WeatherDisplay:10.37,2013-06-03 18:00:00,
2013-06-04 04:05:00,56.3,56.0,30.01,NNE,22,0.0,2.0,99,0.00,CLR,,0.00,0.0,WeatherDisplay:10.37,2013-06-03 18:05:00,
2013-06-04 04:10:00,56.5,56.2,30.02,NNE,22,0.0,2.0,99,0.00,CLR,,0.00,0.0,WeatherDisplay:10.37,2013-06-03 18:10:00,
2013-06-04 04:15:00,56.7,56.4,30.02,NNE,22,0.0,2.0,99,0.00,CLR,,0.00,0.0,WeatherDisplay:10.37,2013-06-03 18:15:00,
2013-06-04 04:20:00,56.8,56.6,30.02,NNE,22,0.0,2.0,99,0.00,CLR,,0.00,0.0,WeatherDisplay:10.37,2013-06-03 18:20:00,
2013-06-04 04:25:00,56.8,56.6,30.02,NNE,22,0.0,0.0,99,0.00,CLR,,0.00,0.0,WeatherDisplay:10.37,2013-06-03 18:25:00,
2013-06-04 04:30:00,57.0,56.7,30.01,NNE,22,0.0,0.0,99,0.00,CLR,,0.00,0.0,WeatherDisplay:10.37,2013-06-03 18:30:00,
2013-06-04 04:35:00,57.0,56.7,30.02,NNE,22,0.0,2.0,99,0.00,CLR,,0.00,0.0,WeatherDisplay:10.37,2013-06-03 18:35:00,
2013-06-04 04:40:00,57.2,56.9,30.02,NNE,22,1.0,2.0,99,0.00,CLR,,0.00,0.0,WeatherDisplay:10.37,2013-06-03 18:40:00,
2013-06-04 04:45:00,57.4,57.1,30.02,NNE,22,0.0,2.0,99,0.00,CLR,,0.00,0.0,WeatherDisplay:10.37,2013-06-03 18:45:00,
2013-06-04 04:50:00,57.4,57.1,30.02,NNE,22,0.0,2.0,99,0.00,CLR,,0.00,0.0,WeatherDisplay:10.37,2013-06-03 18:50:00,
2013-06-04 04:55:00,57.6,57.3,30.02,NNE,22,0.0,2.0,99,0.00,CLR,,0.00,0.0,WeatherDisplay:10.37,2013-06-03 18:55:00,
2013-06-04 05:00:00,57.6,57.3,30.02,NNE,22,0.0,2.0,99,0.00,CLR,,0.00,0.0,WeatherDisplay:10.37,2013-06-03 19:00:00,
2013-06-04 05:05:00,57.4,57.1,30.02,NNE,22,0.0,1.0,99,0.00,CLR,,0.00,0.0,WeatherDisplay:10.37,2013-06-03 19:05:00,
2013-06-04 05:10:00,57.2,56.9,30.02,NNE,22,0.0,1.0,99,0.00,CLR,,0.00,0.0,WeatherDisplay:10.37,2013-06-03 19:10:00,
2013-06-04 05:15:00,57.2,56.9,30.02,NNE,22,0.0,2.0,99,0.00,CLR,,0.00,0.0,WeatherDisplay:10.37,2013-06-03 19:15:00,
2013-06-04 05:20:00,57.2,56.9,30.02,NNE,22,1.0,2.0,99,0.00,CLR,,0.00,0.0,WeatherDisplay:10.37,2013-06-03 19:20:00,
2013-06-04 05:25:00,57.2,56.9,30.03,NNE,22,0.0,2.0,99,0.00,CLR,,0.00,0.0,WeatherDisplay:10.37,2013-06-03 19:25:00,
2013-06-04 05:30:00,57.2,56.9,30.03,NNE,22,1.0,2.0,99,0.00,CLR,,0.00,0.0,WeatherDisplay:10.37,2013-06-03 19:30:00,
2013-06-04 05:35:00,57.0,56.7,30.03,NNE,22,0.0,2.0,99,0.00,CLR,,0.00,0.0,WeatherDisplay:10.37,2013-06-03 19:35:00,
2013-06-04 05:40:00,57.0,56.7,30.03,NNE,22,0.0,2.0,99,0.00,CLR,,0.00,0.0,WeatherDisplay:10.37,2013-06-03 19:40:00,
2013-06-04 05:45:00,57.0,56.7,30.03,NNE,22,0.0,1.0,99,0.00,CLR,,0.00,0.0,WeatherDisplay:10.37,2013-06-03 19:45:00,
2013-06-04 05:50:00,57.0,56.7,30.03,NNE,22,0.0,0.0,99,0.00,CLR,,0.00,0.0,WeatherDisplay:10.37,2013-06-03 19:50:00,
2013-06-04 05:55:00,57.0,56.7,30.03,NNE,22,0.0,2.0,99,0.00,CLR,,0.00,0.0,WeatherDisplay:10.37,2013-06-03 19:55:00,
2013-06-04 06:00:00,57.0,56.7,30.04,NNE,22,0.0,2.0,99,0.00,CLR,,0.00,0.0,WeatherDisplay:10.37,2013-06-03 20:00:00,
2013-06-04 06:05:00,57.0,56.7,30.04,NNE,22,0.0,2.0,99,0.00,CLR,,0.00,0.0,WeatherDisplay:10.37,2013-06-03 20:05:00,
2013-06-04 06:10:00,57.2,56.9,30.04,NNE,22,0.0,2.0,99,0.00,CLR,,0.00,0.0,WeatherDisplay:10.37,2013-06-03 20:10:00,
2013-06-04 06:15:00,57.0,56.7,30.04,NNE,22,0.0,2.0,99,0.00,CLR,,0.00,0.0,WeatherDisplay:10.37,2013-06-03 20:15:00,
2013-06-04 06:20:00,57.0,56.7,30.04,NNE,22,0.0,2.0,99,0.00,CLR,,0.00,0.0,WeatherDisplay:10.37,2013-06-03 20:20:00,
2013-06-04 06:25:00,56.8,56.6,30.05,NNE,22,0.0,2.0,99,0.00,CLR,,0.00,0.0,WeatherDisplay:10.37,2013-06-03 20:25:00,
2013-06-04 06:30:00,56.7,56.4,30.05,NNE,22,0.0,1.0,99,0.00,CLR,,0.00,0.0,WeatherDisplay:10.37,2013-06-03 20:30:00,
2013-06-04 06:35:00,56.7,56.4,30.06,NNE,22,0.0,0.0,99,0.00,CLR,,0.00,0.0,WeatherDisplay:10.37,2013-06-03 20:35:00,
2013-06-04 06:40:00,56.7,56.4,30.06,NNE,22,0.0,2.0,99,0.00,CLR,,0.00,0.0,WeatherDisplay:10.37,2013-06-03 20:40:00,
2013-06-04 06:45:00,56.6,56.3,30.06,NNE,22,0.0,2.0,99,0.00,CLR,,0.00,2.8,WeatherDisplay:10.37,2013-06-03 20:45:00,
2013-06-04 06:50:00,56.5,56.2,30.06,NNE,22,0.0,1.0,99,0.00,CLR,,0.00,5.1,WeatherDisplay:10.37,2013-06-03 20:50:00,
2013-06-04 06:55:00,56.5,56.2,30.06,NNE,22,0.0,2.0,99,0.00,BKN,,0.00,10.1,WeatherDisplay:10.37,2013-06-03 20:55:00,
2013-06-04 07:05:00,56.7,56.4,30.07,NNE,22,0.0,2.0,99,0.00,BKN,,0.00,20.8,WeatherDisplay:10.37,2013-06-03 21:05:00,
2013-06-04 07:10:00,57.0,56.7,30.07,NNE,22,0.0,1.0,99,0.00,BKN,,0.00,27.1,WeatherDisplay:10.37,2013-06-03 21:10:00,
2013-06-04 07:15:00,57.4,57.1,30.07,NNE,22,0.0,2.0,99,0.00,BKN,,0.00,25.8,WeatherDisplay:10.37,2013-06-03 21:15:00,
2013-06-04 07:20:00,57.6,57.3,30.07,NNE,22,0.0,2.0,99,0.00,BKN,,0.00,33.3,WeatherDisplay:10.37,2013-06-03 21:20:00,
2013-06-04 07:25:00,57.7,57.5,30.07,NNE,22,1.0,2.0,99,0.00,CLR,,0.00,78.2,WeatherDisplay:10.37,2013-06-03 21:25:00,
2013-06-04 07:30:00,58.8,58.6,30.07,NNE,22,0.0,2.0,99,0.00,CLR,,0.00,65.0,WeatherDisplay:10.37,2013-06-03 21:30:00,
2013-06-04 07:35:00,61.2,60.7,30.08,NNE,22,0.0,2.0,98,0.00,CLR,,0.00,50.0,WeatherDisplay:10.37,2013-06-03 21:35:00,
2013-06-04 07:40:00,63.3,62.4,30.08,NNE,22,0.0,1.0,97,0.00,CLR,,0.00,35.0,WeatherDisplay:10.37,2013-06-03 21:40:00,
2013-06-04 07:45:00,63.9,63.0,30.08,NNE,22,2.0,6.0,97,0.00,CLR,,0.00,21.0,WeatherDisplay:10.37,2013-06-03 21:45:00,
2013-06-04 07:50:00,64.2,63.4,30.08,NNE,22,2.0,6.0,97,0.00,CLR,,0.00,8.0,WeatherDisplay:10.37,2013-06-03 21:50:00,
2013-06-04 07:55:00,65.8,65.2,30.08,NNE,22,1.0,6.0,98,0.00,CLR,,0.00,247.6,WeatherDisplay:10.37,2013-06-03 21:55:00,
2013-06-04 08:00:00,68.2,66.4,30.09,NNE,22,3.0,6.0,94,0.00,OVC,,0.00,187.8,WeatherDisplay:10.37,2013-06-03 22:00:00,
2013-06-04 08:05:00,68.7,64.3,30.09,NNE,22,5.0,8.0,86,0.00,OVC,,0.00,309.1,WeatherDisplay:10.37,2013-06-03 22:05:00,
2013-06-04 08:10:00,69.1,63.0,30.09,NNE,30,6.0,10.0,81,0.00,OVC,,0.00,328.1,WeatherDisplay:10.37,2013-06-03 22:10:00,
2013-06-04 08:15:00,69.4,62.6,30.09,NE,40,5.0,10.0,79,0.00,OVC,,0.00,366.1,WeatherDisplay:10.37,2013-06-03 22:15:00,
2013-06-04 08:20:00,69.7,62.2,30.09,NE,45,9.0,13.0,77,0.00,OVC,,0.00,398.1,WeatherDisplay:10.37,2013-06-03 22:20:00,
2013-06-04 08:25:00,69.3,61.7,30.09,NE,45,6.0,13.0,77,0.00,OVC,,0.00,106.6,WeatherDisplay:10.37,2013-06-03 22:25:00,
2013-06-04 08:30:00,68.7,61.2,30.09,NE,45,7.0,13.0,77,0.00,OVC,,0.00,375.6,WeatherDisplay:10.37,2013-06-03 22:30:00,
2013-06-04 08:35:00,69.4,61.8,30.09,NE,45,9.0,15.0,77,0.00,OVC,,0.00,108.5,WeatherDisplay:10.37,2013-06-03 22:35:00,
2013-06-04 08:40:00,69.4,61.5,30.10,NE,45,9.0,16.0,76,0.00,OVC,,0.00,163.0,WeatherDisplay:10.37,2013-06-03 22:40:00,
2013-06-04 08:45:00,69.2,61.3,30.09,NE,45,9.0,14.0,76,0.00,OVC,,0.00,598.1,WeatherDisplay:10.37,2013-06-03 22:45:00,
2013-06-04 08:50:00,71.0,62.3,30.10,NE,45,8.0,13.0,74,0.00,OVC,,0.00,189.6,WeatherDisplay:10.37,2013-06-03 22:50:00,
2013-06-04 08:55:00,69.9,60.9,30.10,NE,45,10.0,17.0,73,0.00,OVC,,0.00,209.0,WeatherDisplay:10.37,2013-06-03 22:55:00,
2013-06-04 09:00:00,69.4,61.2,30.10,NE,45,9.0,13.0,75,0.00,OVC,,0.00,214.1,WeatherDisplay:10.37,2013-06-03 23:00:00,
2013-06-04 09:05:00,70.0,61.7,30.10,NE,45,9.0,17.0,75,0.00,OVC,,0.00,301.9,WeatherDisplay:10.37,2013-06-03 23:05:00,
2013-06-04 09:10:00,69.3,60.7,30.10,NE,45,9.0,17.0,74,0.00,OVC,,0.00,743.0,WeatherDisplay:10.37,2013-06-03 23:10:00,
2013-06-04 09:15:00,70.6,61.6,30.11,NE,45,13.0,17.0,73,0.00,OVC,,0.00,736.1,WeatherDisplay:10.37,2013-06-03 23:15:00,
2013-06-04 09:20:00,71.6,61.7,30.11,NE,45,15.0,20.0,71,0.00,OVC,,0.00,717.3,WeatherDisplay:10.37,2013-06-03 23:20:00,
2013-06-04 09:25:00,71.3,61.8,30.11,NE,45,15.0,18.0,72,0.00,OVC,,0.00,737.3,WeatherDisplay:10.37,2013-06-03 23:25:00,
2013-06-04 09:30:00,71.8,61.8,30.10,NE,49,13.0,20.0,71,0.00,OVC,,0.00,756.0,WeatherDisplay:10.37,2013-06-03 23:30:00,
2013-06-04 09:35:00,72.0,61.3,30.10,ENE,71,12.0,20.0,69,0.00,OVC,,0.00,498.8,WeatherDisplay:10.37,2013-06-03 23:35:00,
2013-06-04 09:40:00,71.3,60.2,30.10,East,89,15.0,21.0,68,0.00,OVC,,0.00,837.3,WeatherDisplay:10.37,2013-06-03 23:40:00,
2013-06-04 09:45:00,71.2,60.5,30.11,East,90,12.0,23.0,69,0.00,OVC,,0.00,884.5,WeatherDisplay:10.37,2013-06-03 23:45:00,
2013-06-04 09:50:00,71.2,60.1,30.11,East,90,12.0,23.0,68,0.00,OVC,,0.00,841.8,WeatherDisplay:10.37,2013-06-03 23:50:00,
2013-06-04 09:55:00,72.2,60.2,30.10,ENE,69,18.0,25.0,66,0.00,OVC,,0.00,864.6,WeatherDisplay:10.37,2013-06-03 23:55:00,
2013-06-04 10:00:00,71.8,59.4,30.11,ENE,58,18.0,26.0,65,0.00,OVC,,0.00,164.9,WeatherDisplay:10.37,2013-06-04 00:00:00,
2013-06-04 10:05:00,70.9,59.8,30.11,ENE,67,16.0,24.0,68,0.00,OVC,,0.00,289.5,WeatherDisplay:10.37,2013-06-04 00:05:00,
2013-06-04 10:10:00,71.4,60.3,30.11,ENE,75,17.0,24.0,68,0.00,OVC,,0.00,247.3,WeatherDisplay:10.37,2013-06-04 00:10:00,
2013-06-04 10:20:00,71.2,60.1,30.11,East,90,13.0,22.0,68,0.00,OVC,,0.00,957.4,WeatherDisplay:10.37,2013-06-04 00:20:00,
2013-06-04 10:25:00,72.4,60.0,30.11,East,90,16.0,23.0,65,0.00,OVC,,0.00,188.4,WeatherDisplay:10.37,2013-06-04 00:25:00,
2013-06-04 10:30:00,71.4,59.5,30.11,East,90,17.0,24.0,66,0.00,OVC,,0.00,448.0,WeatherDisplay:10.37,2013-06-04 00:30:00,
2013-06-04 10:35:00,72.0,59.2,30.10,ESE,107,16.0,25.0,64,0.00,OVC,,0.00,1050.2,WeatherDisplay:10.37,2013-06-04 00:35:00,
2013-06-04 10:40:00,72.3,59.0,30.11,ESE,111,18.0,30.0,63,0.00,OVC,,0.00,966.1,WeatherDisplay:10.37,2013-06-04 00:40:00,
2013-06-04 10:45:00,72.4,59.5,30.10,ESE,112,17.0,22.0,64,0.00,OVC,,0.00,661.6,WeatherDisplay:10.37,2013-06-04 00:45:00,
2013-06-04 10:50:00,72.2,58.4,30.10,ESE,110,15.0,25.0,62,0.00,OVC,,0.00,1102.6,WeatherDisplay:10.37,2013-06-04 00:50:00,
2013-06-04 10:55:00,72.5,58.8,30.10,SE,127,10.0,20.0,62,0.00,OVC,,0.00,296.7,WeatherDisplay:10.37,2013-06-04 00:55:00,
2013-06-04 11:00:00,73.0,59.2,30.10,SSE,155,17.0,23.0,62,0.00,OVC,,0.00,240.8,WeatherDisplay:10.37,2013-06-04 01:00:00,
2013-06-04 11:05:00,72.7,58.9,30.10,SE,143,15.0,30.0,62,0.00,OVC,,0.00,292.9,WeatherDisplay:10.37,2013-06-04 01:05:00,
2013-06-04 11:10:00,73.0,59.2,30.10,SE,131,13.0,25.0,62,0.00,OVC,,0.00,197.2,WeatherDisplay:10.37,2013-06-04 01:10:00,
2013-06-04 11:15:00,72.2,58.4,30.10,ESE,114,17.0,25.0,62,0.00,OVC,,0.00,270.0,WeatherDisplay:10.37,2013-06-04 01:15:00,
2013-06-04 11:20:00,71.8,58.6,30.10,ESE,119,17.0,25.0,63,0.00,OVC,,0.00,375.2,WeatherDisplay:10.37,2013-06-04 01:20:00,
2013-06-04 11:25:00,73.2,59.8,30.09,ESE,122,14.0,22.0,63,0.00,OVC,,0.00,1140.5,WeatherDisplay:10.37,2013-06-04 01:25:00,
2013-06-04 11:30:00,73.3,59.1,30.09,ESE,119,10.0,17.0,61,0.00,OVC,,0.00,347.5,WeatherDisplay:10.37,2013-06-04 01:30:00,
2013-06-04 11:35:00,73.0,58.8,30.09,ENE,70,10.0,14.0,61,0.00,OVC,,0.00,1170.5,WeatherDisplay:10.37,2013-06-04 01:35:00,
2013-06-04 11:40:00,74.5,59.2,30.08,North,6,10.0,17.0,59,0.00,OVC,,0.00,882.7,WeatherDisplay:10.37,2013-06-04 01:40:00,
2013-06-04 11:45:00,74.4,59.1,30.08,North,0,7.0,14.0,59,0.00,OVC,,0.00,363.6,WeatherDisplay:10.37,2013-06-04 01:45:00,
2013-06-04 11:50:00,73.9,59.2,30.08,North,4,10.0,18.0,60,0.00,OVC,,0.00,432.9,WeatherDisplay:10.37,2013-06-04 01:50:00,
2013-06-04 11:55:00,73.9,60.0,30.08,NNE,30,16.0,21.0,62,0.00,OVC,,0.00,345.7,WeatherDisplay:10.37,2013-06-04 01:55:00,
2013-06-04 12:00:00,73.0,59.2,30.08,NE,45,13.0,22.0,62,0.00,OVC,,0.00,280.6,WeatherDisplay:10.37,2013-06-04 02:00:00,
2013-06-04 12:05:00,72.7,59.8,30.08,NE,45,13.0,22.0,64,0.00,OVC,,0.00,472.6,WeatherDisplay:10.37,2013-06-04 02:05:00,
2013-06-04 12:10:00,73.0,60.1,30.08,NE,45,10.0,20.0,64,0.00,OVC,,0.00,270.3,WeatherDisplay:10.37,2013-06-04 02:10:00,
2013-06-04 12:15:00,72.9,60.4,30.08,NE,45,13.0,20.0,65,0.00,OVC,,0.00,382.1,WeatherDisplay:10.37,2013-06-04 02:15:00,
2013-06-04 12:20:00,73.3,60.8,30.08,NE,45,10.0,18.0,65,0.00,OVC,,0.00,241.2,WeatherDisplay:10.37,2013-06-04 02:20:00,
2013-06-04 12:25:00,72.7,60.2,30.07,NE,45,12.0,16.0,65,0.00,OVC,,0.00,263.4,WeatherDisplay:10.37,2013-06-04 02:25:00,
2013-06-04 12:30:00,72.4,60.0,30.07,NE,45,12.0,21.0,65,0.00,OVC,,0.00,288.9,WeatherDisplay:10.37,2013-06-04 02:30:00,
2013-06-04 12:35:00,72.5,60.1,30.06,NE,45,15.0,21.0,65,0.00,OVC,,0.00,236.8,WeatherDisplay:10.37,2013-06-04 02:35:00,
2013-06-04 12:40:00,72.1,60.1,30.06,NE,45,12.0,22.0,66,0.00,OVC,,0.00,318.9,WeatherDisplay:10.37,2013-06-04 02:40:00,
2013-06-04 12:45:00,73.1,61.1,30.06,NE,45,15.0,21.0,66,0.00,OVC,,0.00,292.7,WeatherDisplay:10.37,2013-06-04 02:45:00,
2013-06-04 12:50:00,73.3,59.9,30.06,NE,45,14.0,21.0,63,0.00,OVC,,0.00,605.5,WeatherDisplay:10.37,2013-06-04 02:50:00,
2013-06-04 12:55:00,74.4,60.5,30.05,NE,45,10.0,20.0,62,0.00,OVC,,0.00,1377.7,WeatherDisplay:10.37,2013-06-04 02:55:00,
2013-06-04 13:05:00,77.4,59.9,30.05,NE,45,9.0,20.0,55,0.00,OVC,,0.00,1238.4,WeatherDisplay:10.37,2013-06-04 03:05:00,
2013-06-04 13:10:00,77.0,59.1,30.05,NE,45,7.0,17.0,54,0.00,OVC,,0.00,1229.6,WeatherDisplay:10.37,2013-06-04 03:10:00,
2013-06-04 13:15:00,77.6,60.2,30.05,NE,45,8.0,14.0,55,0.00,OVC,,0.00,1073.5,WeatherDisplay:10.37,2013-06-04 03:15:00,
2013-06-04 13:20:00,78.1,60.1,30.04,NE,45,9.0,17.0,54,0.00,OVC,,0.00,1352.3,WeatherDisplay:10.37,2013-06-04 03:20:00,
2013-06-04 13:25:00,78.1,60.1,30.05,NE,45,8.0,20.0,54,0.00,OVC,,0.00,1227.2,WeatherDisplay:10.37,2013-06-04 03:25:00,
2013-06-04 13:30:00,76.9,59.5,30.04,NE,45,10.0,21.0,55,0.00,OVC,,0.00,393.3,WeatherDisplay:10.37,2013-06-04 03:30:00,
2013-06-04 13:35:00,74.8,59.0,30.04,NE,45,14.0,17.0,58,0.00,OVC,,0.00,1115.2,WeatherDisplay:10.37,2013-06-04 03:35:00,
2013-06-04 13:40:00,74.6,59.8,30.04,NE,45,12.0,17.0,60,0.00,OVC,,0.00,313.4,WeatherDisplay:10.37,2013-06-04 03:40:00,
2013-06-04 13:45:00,73.8,58.6,30.04,NE,45,10.0,18.0,59,0.00,OVC,,0.00,398.9,WeatherDisplay:10.37,2013-06-04 03:45:00,
2013-06-04 13:50:00,74.1,58.9,30.04,NE,45,13.0,17.0,59,0.00,OVC,,0.00,233.4,WeatherDisplay:10.37,2013-06-04 03:50:00,
2013-06-04 13:55:00,75.4,59.1,30.04,NE,45,12.0,18.0,57,0.00,OVC,,0.00,1101.3,WeatherDisplay:10.37,2013-06-04 03:55:00,
2013-06-04 14:00:00,76.6,59.3,30.04,NE,45,10.0,20.0,55,0.00,OVC,,0.00,1066.0,WeatherDisplay:10.37,2013-06-04 04:00:00,
2013-06-04 14:05:00,77.0,59.1,30.03,NE,45,13.0,17.0,54,0.00,OVC,,0.00,1087.9,WeatherDisplay:10.37,2013-06-04 04:05:00,
2013-06-04 14:10:00,76.8,59.4,30.03,NE,55,10.0,21.0,55,0.00,OVC,,0.00,1056.3,WeatherDisplay:10.37,2013-06-04 04:10:00,
2013-06-04 14:15:00,76.9,59.5,30.03,NE,53,7.0,17.0,55,0.00,OVC,,0.00,1091.8,WeatherDisplay:10.37,2013-06-04 04:15:00,
2013-06-04 14:20:00,77.4,59.4,30.03,NE,45,10.0,21.0,54,0.00,OVC,,0.00,277.0,WeatherDisplay:10.37,2013-06-04 04:20:00,
2013-06-04 14:25:00,77.2,59.2,30.03,NE,45,18.0,25.0,54,0.00,OVC,,0.00,447.6,WeatherDisplay:10.37,2013-06-04 04:25:00,
2013-06-04 14:30:00,76.0,59.7,30.03,NE,45,13.0,21.0,57,0.00,OVC,,0.00,552.7,WeatherDisplay:10.37,2013-06-04 04:30:00,
2013-06-04 14:35:00,76.1,60.3,30.03,NE,45,12.0,20.0,58,0.00,OVC,,0.00,363.9,WeatherDisplay:10.37,2013-06-04 04:35:00,
2013-06-04 14:40:00,74.8,60.5,30.03,NE,45,9.0,17.0,61,0.00,OVC,,0.00,1100.3,WeatherDisplay:10.37,2013-06-04 04:40:00,
2013-06-04 14:45:00,75.9,61.5,30.03,NE,45,8.0,15.0,61,0.00,OVC,,0.00,1206.2,WeatherDisplay:10.37,2013-06-04 04:45:00,
2013-06-04 14:50:00,75.5,61.1,30.03,NE,45,12.0,17.0,61,0.00,OVC,,0.00,363.4,WeatherDisplay:10.37,2013-06-04 04:50:00,
2013-06-04 15:00:00,73.1,60.6,30.03,NE,45,13.0,20.0,65,0.00,OVC,,0.00,272.8,WeatherDisplay:10.37,2013-06-04 05:00:00,
2013-06-04 15:05:00,72.5,60.5,30.03,NE,45,8.0,20.0,66,0.00,OVC,,0.00,535.0,WeatherDisplay:10.37,2013-06-04 05:05:00,
2013-06-04 15:10:00,74.1,62.0,30.03,NE,45,10.0,14.0,66,0.00,OVC,,0.00,273.9,WeatherDisplay:10.37,2013-06-04 05:10:00,
2013-06-04 15:15:00,73.0,61.0,30.03,NE,45,9.0,20.0,66,0.00,OVC,,0.00,209.7,WeatherDisplay:10.37,2013-06-04 05:15:00,
2013-06-04 15:20:00,71.7,61.0,30.03,NE,45,13.0,20.0,69,0.00,OVC,,0.00,124.0,WeatherDisplay:10.37,2013-06-04 05:20:00,
2013-06-04 15:25:00,70.7,60.4,30.03,NE,45,12.0,20.0,70,0.00,OVC,,0.00,131.6,WeatherDisplay:10.37,2013-06-04 05:25:00,
2013-06-04 15:30:00,70.5,61.1,30.03,NE,45,8.0,20.0,72,0.00,OVC,,0.00,199.3,WeatherDisplay:10.37,2013-06-04 05:30:00,
2013-06-04 15:35:00,70.5,60.7,30.04,NE,45,8.0,15.0,71,0.00,OVC,,0.00,170.2,WeatherDisplay:10.37,2013-06-04 05:35:00,
2013-06-04 15:45:00,72.2,61.9,30.03,NE,45,10.0,15.0,70,0.00,OVC,,0.00,600.6,WeatherDisplay:10.37,2013-06-04 05:45:00,
2013-06-04 15:50:00,73.1,61.9,30.03,NE,45,12.0,15.0,68,0.00,OVC,,0.00,656.3,WeatherDisplay:10.37,2013-06-04 05:50:00,
2013-06-04 15:55:00,73.4,61.8,30.03,NE,45,8.0,16.0,67,0.00,OVC,,0.00,253.9,WeatherDisplay:10.37,2013-06-04 05:55:00,
2013-06-04 16:00:00,74.1,62.5,30.03,NE,45,6.0,12.0,67,0.00,CLR,,0.00,184.7,WeatherDisplay:10.37,2013-06-04 06:00:00,
2013-06-04 16:05:00,73.9,61.4,30.03,NE,45,10.0,15.0,65,0.00,CLR,,0.00,149.1,WeatherDisplay:10.37,2013-06-04 06:05:00,
2013-06-04 16:10:00,72.9,60.0,30.03,NE,45,14.0,20.0,64,0.00,CLR,,0.00,195.9,WeatherDisplay:10.37,2013-06-04 06:10:00,
2013-06-04 16:15:00,72.1,59.7,30.04,NE,45,12.0,22.0,65,0.00,CLR,,0.00,111.6,WeatherDisplay:10.37,2013-06-04 06:15:00,
2013-06-04 16:20:00,71.4,60.3,30.03,NE,45,9.0,17.0,68,0.00,CLR,,0.00,134.5,WeatherDisplay:10.37,2013-06-04 06:20:00,
2013-06-04 16:25:00,72.3,60.8,30.03,NE,45,9.0,15.0,67,0.00,CLR,,0.00,112.2,WeatherDisplay:10.37,2013-06-04 06:25:00,
2013-06-04 16:30:00,72.1,60.2,30.04,NE,45,8.0,15.0,66,0.00,CLR,,0.00,127.1,WeatherDisplay:10.37,2013-06-04 06:30:00,
2013-06-04 16:35:00,72.0,60.4,30.04,NE,45,10.0,15.0,67,0.00,CLR,,0.00,331.5,WeatherDisplay:10.37,2013-06-04 06:35:00,
2013-06-04 16:40:00,72.1,60.6,30.04,NE,45,12.0,17.0,67,0.00,CLR,,0.00,295.1,WeatherDisplay:10.37,2013-06-04 06:40:00,
2013-06-04 16:45:00,72.0,60.5,30.04,NE,45,8.0,15.0,67,0.00,CLR,,0.00,74.1,WeatherDisplay:10.37,2013-06-04 06:45:00,
2013-06-04 16:50:00,71.8,60.6,30.04,NE,45,7.0,14.0,68,0.00,CLR,,0.00,193.6,WeatherDisplay:10.37,2013-06-04 06:50:00,
2013-06-04 16:55:00,71.8,59.8,30.04,NE,45,10.0,15.0,66,0.00,CLR,,0.00,206.9,WeatherDisplay:10.37,2013-06-04 06:55:00,
2013-06-04 17:00:00,71.6,59.6,30.04,NE,45,10.0,16.0,66,0.00,CLR,,0.00,177.8,WeatherDisplay:10.37,2013-06-04 07:00:00,
2013-06-04 17:05:00,71.2,60.1,30.04,NE,45,8.0,13.0,68,0.00,CLR,,0.00,143.1,WeatherDisplay:10.37,2013-06-04 07:05:00,
2013-06-04 17:10:00,70.9,60.2,30.04,NE,45,7.0,15.0,69,0.00,CLR,,0.00,125.2,WeatherDisplay:10.37,2013-06-04 07:10:00,
2013-06-04 17:15:00,70.5,60.3,30.05,NE,45,12.0,17.0,70,0.00,CLR,,0.00,53.6,WeatherDisplay:10.37,2013-06-04 07:15:00,
2013-06-04 17:20:00,70.0,60.2,30.05,NE,45,9.0,17.0,71,0.00,CLR,,0.00,61.4,WeatherDisplay:10.37,2013-06-04 07:20:00,
2013-06-04 17:25:00,70.0,60.5,30.05,NE,45,9.0,15.0,72,0.00,CLR,,0.00,64.8,WeatherDisplay:10.37,2013-06-04 07:25:00,
2013-06-04 17:30:00,70.0,60.5,30.05,NE,45,10.0,15.0,72,0.00,CLR,,0.00,41.2,WeatherDisplay:10.37,2013-06-04 07:30:00,
2013-06-04 17:35:00,69.6,61.0,30.05,NE,45,8.0,15.0,74,0.00,CLR,,0.00,17.6,WeatherDisplay:10.37,2013-06-04 07:35:00,
2013-06-04 17:40:00,69.4,60.8,30.05,NE,45,8.0,16.0,74,0.00,CLR,,0.00,6.4,WeatherDisplay:10.37,2013-06-04 07:40:00,
2013-06-04 17:45:00,69.3,61.0,30.05,NE,45,6.0,14.0,75,0.00,CLR,,0.00,1.1,WeatherDisplay:10.37,2013-06-04 07:45:00,
2013-06-04 17:50:00,69.1,60.8,30.06,NE,45,6.0,13.0,75,0.00,CLR,,0.00,0.0,WeatherDisplay:10.37,2013-06-04 07:50:00,
2013-06-04 17:55:00,69.0,60.7,30.06,NE,45,6.0,13.0,75,0.00,CLR,,0.00,0.0,WeatherDisplay:10.37,2013-06-04 07:55:00,
2013-06-04 18:00:00,68.9,61.0,30.06,NE,45,5.0,11.0,76,0.00,CLR,,0.00,0.0,WeatherDisplay:10.37,2013-06-04 08:00:00,
2013-06-04 18:05:00,68.9,61.0,30.06,NE,45,5.0,8.0,76,0.00,CLR,,0.00,0.0,WeatherDisplay:10.37,2013-06-04 08:05:00,
2013-06-04 18:10:00,68.7,60.8,30.06,NE,45,6.0,8.0,76,0.00,CLR,,0.00,0.0,WeatherDisplay:10.37,2013-06-04 08:10:00,
2013-06-04 18:15:00,68.7,60.8,30.06,NE,45,7.0,12.0,76,0.00,CLR,,0.00,0.0,WeatherDisplay:10.37,2013-06-04 08:15:00,
2013-06-04 18:20:00,68.7,60.8,30.06,NE,45,5.0,12.0,76,0.00,CLR,,0.00,0.0,WeatherDisplay:10.37,2013-06-04 08:20:00,
2013-06-04 18:25:00,68.5,61.0,30.07,NE,45,8.0,12.0,77,0.00,CLR,,0.00,0.0,WeatherDisplay:10.37,2013-06-04 08:25:00,
2013-06-04 18:30:00,68.5,61.4,30.06,NE,45,5.0,13.0,78,0.00,CLR,,0.00,0.0,WeatherDisplay:10.37,2013-06-04 08:30:00,
2013-06-04 18:35:00,68.3,61.6,30.07,NE,45,8.0,14.0,79,0.00,CLR,,0.00,0.0,WeatherDisplay:10.37,2013-06-04 08:35:00,
2013-06-04 18:40:00,68.0,61.6,30.07,NE,45,8.0,13.0,80,0.00,CLR,,0.00,0.0,WeatherDisplay:10.37,2013-06-04 08:40:00,
2013-06-04 18:45:00,67.8,62.5,30.07,NE,45,7.0,12.0,83,0.00,CLR,,0.00,0.0,WeatherDisplay:10.37,2013-06-04 08:45:00,
2013-06-04 18:50:00,67.5,62.5,30.08,NE,45,5.0,10.0,84,0.00,CLR,,0.00,0.0,WeatherDisplay:10.37,2013-06-04 08:50:00,
2013-06-04 18:55:00,67.2,62.5,30.08,NE,45,5.0,9.0,85,0.00,CLR,,0.00,0.0,WeatherDisplay:10.37,2013-06-04 08:55:00,
2013-06-04 19:00:00,66.9,62.3,30.08,NE,45,3.0,7.0,85,0.00,CLR,,0.00,0.0,WeatherDisplay:10.37,2013-06-04 09:00:00,
2013-06-04 19:05:00,66.8,62.5,30.08,NE,45,3.0,6.0,86,0.00,CLR,,0.00,0.0,WeatherDisplay:10.37,2013-06-04 09:05:00,
2013-06-04 19:10:00,66.6,62.6,30.08,NE,36,5.0,8.0,87,0.00,CLR,,0.00,0.0,WeatherDisplay:10.37,2013-06-04 09:10:00,
2013-06-04 19:15:00,66.2,62.9,30.08,NNE,13,3.0,7.0,89,0.00,CLR,,0.00,0.0,WeatherDisplay:10.37,2013-06-04 09:15:00,
2013-06-04 19:20:00,65.8,63.1,30.08,North,0,3.0,5.0,91,0.00,CLR,,0.00,0.0,WeatherDisplay:10.37,2013-06-04 09:20:00,
2013-06-04 19:25:00,65.7,63.6,30.08,North,0,3.0,7.0,93,0.00,CLR,,0.00,0.0,WeatherDisplay:10.37,2013-06-04 09:25:00,
2013-06-04 19:30:00,65.7,63.9,30.09,North,0,2.0,5.0,94,0.00,CLR,,0.00,0.0,WeatherDisplay:10.37,2013-06-04 09:30:00,
2013-06-04 19:35:00,65.4,64.0,30.09,North,0,2.0,8.0,95,0.00,CLR,,0.00,0.0,WeatherDisplay:10.37,2013-06-04 09:35:00,
2013-06-04 19:40:00,65.4,63.9,30.09,North,0,3.0,10.0,95,0.00,CLR,,0.00,0.0,WeatherDisplay:10.37,2013-06-04 09:40:00,
2013-06-04 19:45:00,65.4,64.0,30.09,North,0,3.0,8.0,95,0.00,CLR,,0.00,0.0,WeatherDisplay:10.37,2013-06-04 09:45:00,
2013-06-04 19:50:00,65.5,63.7,30.09,North,0,2.0,6.0,94,0.00,CLR,,0.00,0.0,WeatherDisplay:10.37,2013-06-04 09:50:00,
2013-06-04 19:55:00,65.5,63.4,30.09,North,0,3.0,7.0,93,0.00,CLR,,0.00,0.0,WeatherDisplay:10.37,2013-06-04 09:55:00,
2013-06-04 20:00:00,65.8,63.5,30.09,North,0,5.0,9.0,92,0.00,CLR,,0.00,0.0,WeatherDisplay:10.37,2013-06-04 10:00:00,
2013-06-04 20:05:00,66.5,62.8,30.09,North,0,8.0,12.0,88,0.00,CLR,,0.00,0.0,WeatherDisplay:10.37,2013-06-04 10:05:00,
2013-06-04 20:10:00,66.9,62.6,30.10,North,0,6.0,13.0,86,0.00,CLR,,0.00,0.0,WeatherDisplay:10.37,2013-06-04 10:10:00,
2013-06-04 20:15:00,67.3,62.3,30.10,North,0,7.0,15.0,84,0.00,CLR,,0.00,0.0,WeatherDisplay:10.37,2013-06-04 10:15:00,
2013-06-04 20:20:00,67.3,61.9,30.10,North,0,8.0,14.0,83,0.00,CLR,,0.00,0.0,WeatherDisplay:10.37,2013-06-04 10:20:00,
2013-06-04 20:25:00,67.3,61.9,30.09,North,0,6.0,10.0,83,0.00,CLR,,0.00,0.0,WeatherDisplay:10.37,2013-06-04 10:25:00,
2013-06-04 20:30:00,67.1,61.8,30.10,North,0,9.0,14.0,83,0.00,CLR,,0.00,0.0,WeatherDisplay:10.37,2013-06-04 10:30:00,
2013-06-04 20:40:00,67.3,61.6,30.09,North,0,9.0,15.0,82,0.00,CLR,,0.00,0.0,WeatherDisplay:10.37,2013-06-04 10:40:00,
2013-06-04 20:45:00,67.5,61.8,30.10,North,0,8.0,15.0,82,0.00,CLR,,0.00,0.0,WeatherDisplay:10.37,2013-06-04 10:45:00,
2013-06-04 20:50:00,67.6,61.6,30.09,North,0,9.0,17.0,81,0.00,CLR,,0.00,0.0,WeatherDisplay:10.37,2013-06-04 10:50:00,
2013-06-04 20:55:00,67.6,61.6,30.10,North,0,10.0,15.0,81,0.00,CLR,,0.00,0.0,WeatherDisplay:10.37,2013-06-04 10:55:00,
2013-06-04 21:00:00,67.6,61.2,30.10,North,6,9.0,17.0,80,0.00,CLR,,0.00,0.0,WeatherDisplay:10.37,2013-06-04 11:00:00,
2013-06-04 21:05:00,67.6,61.2,30.10,NNE,17,9.0,17.0,80,0.00,CLR,,0.00,0.0,WeatherDisplay:10.37,2013-06-04 11:05:00,
2013-06-04 21:10:00,67.5,61.1,30.10,NE,35,8.0,17.0,80,0.00,CLR,,0.00,0.0,WeatherDisplay:10.37,2013-06-04 11:10:00,
2013-06-04 21:15:00,67.5,61.1,30.10,NE,45,5.0,14.0,80,0.00,CLR,,0.00,0.0,WeatherDisplay:10.37,2013-06-04 11:15:00,
2013-06-04 21:20:00,67.1,60.8,30.10,NE,45,6.0,14.0,80,0.00,CLR,,0.00,0.0,WeatherDisplay:10.37,2013-06-04 11:20:00,
2013-06-04 21:25:00,66.9,60.8,30.10,NE,45,6.0,9.0,81,0.00,CLR,,0.00,0.0,WeatherDisplay:10.37,2013-06-04 11:25:00,
2013-06-04 21:30:00,66.6,60.6,30.10,NE,45,3.0,9.0,81,0.00,CLR,,0.00,0.0,WeatherDisplay:10.37,2013-06-04 11:30:00,
2013-06-04 21:35:00,66.4,60.7,30.10,NE,45,6.0,9.0,82,0.00,CLR,,0.00,0.0,WeatherDisplay:10.37,2013-06-04 11:35:00,
2013-06-04 21:40:00,66.3,60.6,30.10,NE,45,2.0,5.0,82,0.00,CLR,,0.00,0.0,WeatherDisplay:10.37,2013-06-04 11:40:00,
2013-06-04 21:45:00,65.8,60.9,30.11,NE,45,1.0,3.0,84,0.00,CLR,,0.00,0.0,WeatherDisplay:10.37,2013-06-04 11:45:00,
2013-06-04 21:50:00,65.8,61.2,30.11,NE,45,1.0,3.0,85,0.00,CLR,,0.00,0.0,WeatherDisplay:10.37,2013-06-04 11:50:00,
2013-06-04 21:55:00,65.8,61.2,30.11,NE,45,1.0,2.0,85,0.00,CLR,,0.00,0.0,WeatherDisplay:10.37,2013-06-04 11:55:00,
2013-06-04 22:00:00,65.4,60.8,30.11,NE,45,0.0,2.0,85,0.00,CLR,,0.00,0.0,WeatherDisplay:10.37,2013-06-04 12:00:00,
2013-06-04 22:05:00,64.9,60.6,30.11,NE,45,3.0,5.0,86,0.00,CLR,,0.00,0.0,WeatherDisplay:10.37,2013-06-04 12:05:00,
2013-06-04 22:10:00,64.6,60.6,30.11,NE,45,1.0,3.0,87,0.00,CLR,,0.00,0.0,WeatherDisplay:10.37,2013-06-04 12:10:00,
2013-06-04 22:15:00,64.6,60.9,30.11,NE,45,0.0,2.0,88,0.00,CLR,,0.00,0.0,WeatherDisplay:10.37,2013-06-04 12:15:00,
2013-06-04 22:20:00,64.4,60.8,30.11,NE,45,1.0,4.0,88,0.00,CLR,,0.00,0.0,WeatherDisplay:10.37,2013-06-04 12:20:00,
2013-06-04 22:25:00,64.2,60.6,30.11,NE,45,1.0,2.0,88,0.00,CLR,,0.00,0.0,WeatherDisplay:10.37,2013-06-04 12:25:00,
2013-06-04 22:30:00,64.0,60.7,30.11,NE,45,1.0,2.0,89,0.00,CLR,,0.00,0.0,WeatherDisplay:10.37,2013-06-04 12:30:00,
2013-06-04 22:35:00,64.7,61.4,30.12,NE,45,3.0,8.0,89,0.00,CLR,,0.00,0.0,WeatherDisplay:10.37,2013-06-04 12:35:00,
2013-06-04 22:40:00,66.2,61.6,30.11,NE,45,5.0,9.0,85,0.00,CLR,,0.00,0.0,WeatherDisplay:10.37,2013-06-04 12:40:00,
2013-06-04 22:45:00,65.7,61.4,30.11,NE,45,3.0,7.0,86,0.00,CLR,,0.00,0.0,WeatherDisplay:10.37,2013-06-04 12:45:00,
2013-06-04 22:50:00,65.8,61.5,30.11,NE,45,3.0,7.0,86,0.00,CLR,,0.00,0.0,WeatherDisplay:10.37,2013-06-04 12:50:00,
2013-06-04 22:55:00,65.8,61.2,30.11,NE,45,2.0,6.0,85,0.00,CLR,,0.00,0.0,WeatherDisplay:10.37,2013-06-04 12:55:00,
2013-06-04 23:00:00,65.6,61.0,30.11,NE,45,2.0,5.0,85,0.00,CLR,,0.00,0.0,WeatherDisplay:10.37,2013-06-04 13:00:00,
2013-06-04 23:05:00,65.4,60.8,30.11,NE,45,2.0,8.0,85,0.00,CLR,,0.00,0.0,WeatherDisplay:10.37,2013-06-04 13:05:00,
2013-06-04 23:10:00,65.5,60.8,30.11,NE,45,3.0,8.0,85,0.00,CLR,,0.00,0.0,WeatherDisplay:10.37,2013-06-04 13:10:00,
2013-06-04 23:15:00,65.7,61.0,30.11,NE,45,3.0,8.0,85,0.00,CLR,,0.00,0.0,WeatherDisplay:10.37,2013-06-04 13:15:00,
2013-06-04 23:20:00,65.8,60.9,30.11,NE,45,3.0,7.0,84,0.00,CLR,,0.00,0.0,WeatherDisplay:10.37,2013-06-04 13:20:00,
2013-06-04 23:25:00,66.0,61.0,30.11,NE,45,3.0,8.0,84,0.00,CLR,,0.00,0.0,WeatherDisplay:10.37,2013-06-04 13:25:00,
2013-06-04 23:30:00,66.2,60.9,30.10,NE,45,3.0,8.0,83,0.00,CLR,,0.00,0.0,WeatherDisplay:10.37,2013-06-04 13:30:00,
2013-06-04 23:35:00,66.2,60.9,30.11,NE,45,6.0,12.0,83,0.00,CLR,,0.00,0.0,WeatherDisplay:10.37,2013-06-04 13:35:00,
2013-06-04 23:40:00,66.6,60.5,30.10,NE,45,5.0,12.0,81,0.00,CLR,,0.00,0.0,WeatherDisplay:10.37,2013-06-04 13:40:00,
2013-06-04 23:45:00,66.9,60.5,30.10,NE,45,6.0,10.0,80,0.00,CLR,,0.00,0.0,WeatherDisplay:10.37,2013-06-04 13:45:00,
2013-06-04 23:50:00,67.1,60.4,30.11,NE,45,3.0,9.0,79,0.00,CLR,,0.00,0.0,WeatherDisplay:10.37,2013-06-04 13:50:00,
2013-06-04 23:55:00,66.6,60.2,30.11,NE,45,5.0,8.0,80,0.00,CLR,,0.00,0.0,WeatherDisplay:10.37,2013-06-04 13:55:00,